Date String (YYYY-MM-DD hh:mm:ss) UTC,Instrument flags,Ambient pressure (hPa),Sample flow (lpm),Bypass flow (lpm),Sample temperature (°C),Ambient temperature (°C),ASC tube jacket temperature (°C),LED temperature (°C),Box temperature (°C),Sample RH (%),Span deviation,Mass concentration (μg/m³),Mass concentration (μg/m³),Mass concentration (μg/m³)
DateTimeUTC,F1_M11,P_M11,Q1_M11,Q2_M11,T1_M11,T2_M11,T3_M11,T4_M11,T5_M11,U1_M11,ZSPAN_M11,X2_M11,X0_M11,X1_M11
2021-12-22 21:00:00,,0819.8,4.98,0.00,27.1,26.1,00.0,36.0,28.9,03.0,0000.0,0000.37,0000.85,0000.28
2021-12-22 21:01:00,,0819.8,5.01,0.00,27.1,26.2,00.0,36.0,28.9,03.1,0000.0,0000.39,0000.91,0000.28
2021-12-22 21:02:00,,0819.6,5.00,0.00,27.2,26.2,00.0,36.1,28.9,03.2,0000.0,0000.39,0000.91,0000.28
2021-12-22 21:03:00,,0819.9,4.99,0.00,27.1,26.2,00.0,36.1,28.9,03.3,0000.0,0000.38,0000.89,0000.28
2021-12-22 21:04:00,,0820.0,5.02,0.00,27.1,26.2,00.0,36.1,28.8,03.3,0000.0,0000.37,0000.87,0000.27
2021-12-22 21:05:00,,0819.9,4.99,0.00,27.1,26.1,00.0,36.1,28.8,03.3,0000.0,0000.37,0000.86,0000.27
2021-12-22 21:06:00,,0820.0,5.00,0.00,27.1,26.1,00.0,36.1,28.8,03.4,0000.0,0000.36,0000.84,0000.26
2021-12-22 21:07:00,,0820.0,5.01,0.00,27.2,26.1,00.0,36.1,28.9,03.3,0000.0,0000.34,0000.58,0000.27
2021-12-22 21:08:00,,0819.9,5.00,0.00,27.2,26.1,00.0,36.1,28.9,03.1,0000.0,0000.35,0001.13,0000.26
2021-12-22 21:09:00,,0819.9,5.00,0.00,27.2,26.2,00.0,36.1,28.9,03.1,0000.0,0000.34,0001.96,0000.26
2021-12-22 21:10:00,,0820.0,4.99,0.00,27.2,26.2,00.0,36.1,28.9,03.3,0000.0,0000.34,0002.25,0000.25
2021-12-22 21:11:00,,0819.9,5.01,0.00,27.2,26.2,00.0,36.1,29.0,03.4,0000.0,0000.34,0002.25,0000.25
2021-12-22 21:12:00,,0819.9,5.00,0.00,27.2,26.2,00.0,36.1,29.0,03.3,0000.0,0000.35,0002.24,0000.25
2021-12-22 21:13:00,,0819.9,5.00,0.00,27.2,26.2,00.0,36.1,28.9,03.4,0000.0,0000.35,0002.40,0000.25
2021-12-22 21:14:00,,0819.9,5.00,0.00,27.2,26.2,00.0,36.1,28.9,03.9,0000.0,0000.34,0002.80,0000.24
2021-12-22 21:15:00,,0819.9,5.00,0.00,27.2,26.2,00.0,36.1,28.9,04.1,0000.0,0000.34,0002.89,0000.23
2021-12-22 21:16:00,,0819.9,4.99,0.00,27.2,26.2,00.0,36.1,28.9,03.9,0000.0,0000.33,0002.94,0000.23
2021-12-22 21:17:00,,0819.9,4.99,0.00,27.2,26.2,00.0,36.1,28.9,03.7,0000.0,0000.32,0002.91,0000.22
2021-12-22 21:18:00,,0819.9,5.02,0.00,27.2,26.2,00.0,36.1,28.9,03.8,0000.0,0000.31,0002.89,0000.22
2021-12-22 21:19:00,,0819.7,5.00,0.00,27.2,26.3,00.0,36.2,28.9,04.0,0000.0,0000.30,0002.29,0000.21
2021-12-22 21:20:00,,0819.9,5.00,0.00,27.2,26.3,00.0,36.2,29.0,03.9,0000.0,0000.30,0001.52,0000.20
2021-12-22 21:21:00,,0819.9,5.00,0.00,27.3,26.3,00.0,36.2,29.0,03.9,0000.0,0000.30,0001.20,0000.20
2021-12-22 21:22:00,,0819.8,5.00,0.00,27.3,26.3,00.0,36.2,29.0,03.8,0000.0,0000.29,0001.17,0000.19
2021-12-22 21:23:00,,0819.8,4.98,0.00,27.3,26.3,00.0,36.2,29.0,03.6,0000.0,0000.25,0001.10,0000.19
2021-12-22 21:24:00,,0819.9,5.02,0.00,27.3,26.3,00.0,36.2,29.0,03.5,0000.0,0000.26,0000.92,0000.19
2021-12-22 21:25:00,,0819.8,4.99,0.00,27.3,26.3,00.0,36.2,29.0,03.6,0000.0,0000.26,0000.56,0000.19
2021-12-22 21:26:00,,0819.7,5.01,0.00,27.3,26.3,00.0,36.2,29.0,03.5,0000.0,0000.26,0000.52,0000.20
2021-12-22 21:27:00,,0819.7,4.99,0.00,27.3,26.3,00.0,36.2,29.0,03.5,0000.0,0000.28,0000.45,0000.20
2021-12-22 21:28:00,,0819.8,5.01,0.00,27.3,26.4,00.0,36.2,29.0,03.4,0000.0,0000.30,0001.05,0000.21
2021-12-22 21:29:00,,0819.7,5.01,0.00,27.3,26.4,00.0,36.2,29.1,03.5,0000.0,0000.31,0001.67,0000.21
2021-12-22 21:30:00,,0819.8,5.00,0.00,27.3,26.4,00.0,36.2,29.1,03.4,0000.0,0000.31,0001.67,0000.22
2021-12-22 21:31:00,,0819.8,5.00,0.00,27.3,26.4,00.0,36.2,29.1,03.4,0000.0,0000.30,0001.65,0000.23
2021-12-22 21:32:00,,0819.5,4.99,0.00,27.4,26.4,00.0,36.2,29.1,03.4,0000.0,0000.30,0001.59,0000.23
2021-12-22 21:33:00,,0819.4,4.99,0.00,27.4,26.4,00.0,36.3,29.1,03.6,0000.0,0000.30,0001.56,0000.24
2021-12-22 21:34:00,,0819.6,5.01,0.00,27.4,26.4,00.0,36.3,29.1,03.8,0000.0,0000.32,0001.59,0000.24
2021-12-22 21:35:00,,0819.8,4.99,0.00,27.3,26.4,00.0,36.3,29.1,04.3,0000.0,0000.32,0001.62,0000.24
2021-12-22 21:36:00,,0819.9,5.01,0.00,27.4,26.4,00.0,36.3,29.0,04.1,0000.0,0000.32,0001.63,0000.23
2021-12-22 21:37:00,,0819.9,5.00,0.00,27.4,26.4,00.0,36.3,29.1,03.9,0000.0,0000.34,0001.66,0000.23
2021-12-22 21:38:00,,0819.9,4.99,0.00,27.4,26.4,00.0,36.3,29.1,03.9,0000.0,0000.32,0001.64,0000.23
2021-12-22 21:39:00,,0820.0,4.99,0.00,27.4,26.4,00.0,36.3,29.1,04.1,0000.0,0000.30,0001.14,0000.23
2021-12-22 21:40:00,,0820.2,5.01,0.00,27.4,26.4,00.0,36.3,29.2,03.7,0000.0,0000.29,0000.43,0000.23
2021-12-22 21:41:00,,0820.0,5.01,0.00,27.4,26.5,00.0,36.3,29.2,03.7,0000.0,0000.29,0000.46,0000.23
2021-12-22 21:42:00,,0819.9,4.99,0.00,27.4,26.5,00.0,36.3,29.1,03.9,0000.0,0000.29,0000.56,0000.22
2021-12-22 21:43:00,,0819.9,5.01,0.00,27.4,26.5,00.0,36.3,29.1,03.9,0000.0,0000.29,0001.06,0000.22
2021-12-22 21:44:00,,0819.9,5.01,0.00,27.4,26.5,00.0,36.3,29.1,03.7,0000.0,0000.30,0001.46,0000.21
2021-12-22 21:45:00,,0819.8,4.98,0.00,27.4,26.5,00.0,36.3,29.1,03.7,0000.0,0000.29,0001.46,0000.21
2021-12-22 21:46:00,,0819.9,5.01,0.00,27.4,26.5,00.0,36.4,29.1,03.6,0000.0,0000.30,0001.46,0000.22
2021-12-22 21:47:00,,0819.9,5.00,0.00,27.4,26.5,00.0,36.4,29.1,03.6,0000.0,0000.32,0001.54,0000.23
2021-12-22 21:48:00,,0819.9,4.99,0.00,27.4,26.5,00.0,36.4,29.1,03.6,0000.0,0000.33,0001.59,0000.24
2021-12-22 21:49:00,,0820.0,5.00,0.00,27.4,26.5,00.0,36.4,29.1,03.6,0000.0,0000.32,0001.60,0000.24
2021-12-22 21:50:00,,0819.9,5.00,0.00,27.4,26.5,00.0,36.4,29.2,03.5,0000.0,0000.34,0001.67,0000.25
2021-12-22 21:51:00,,0819.9,5.00,0.00,27.4,26.5,00.0,36.4,29.2,03.6,0000.0,0000.34,0001.67,0000.25
2021-12-22 21:52:00,,0819.8,5.01,0.00,27.4,26.6,00.0,36.4,29.2,03.6,0000.0,0000.34,0001.66,0000.25
2021-12-22 21:53:00,,0819.8,5.00,0.00,27.4,26.6,00.0,36.4,29.1,03.6,0000.0,0000.34,0001.66,0000.26
2021-12-22 21:54:00,,0819.7,5.00,0.00,27.4,26.6,00.0,36.4,29.2,03.5,0000.0,0000.38,0001.41,0000.27
2021-12-22 21:55:00,,0819.8,5.00,0.00,27.4,26.6,00.0,36.4,29.2,03.6,0000.0,0000.38,0000.90,0000.28
2021-12-22 21:56:00,,0819.8,4.99,0.00,27.5,26.6,00.0,36.4,29.2,03.7,0000.0,0000.40,0001.12,0000.28
2021-12-22 21:57:00,,0819.9,5.00,0.00,27.5,26.6,00.0,36.4,29.2,03.9,0000.0,0000.46,0001.45,0000.28
2021-12-22 21:58:00,,0819.7,4.99,0.00,27.5,26.6,00.0,36.4,29.2,03.7,0000.0,0000.43,0001.36,0000.28
2021-12-22 21:59:00,,0819.6,4.99,0.00,27.5,26.7,00.0,36.4,29.3,03.6,0000.0,0000.42,0001.27,0000.28
